sat.trackr.live / text

‹ back to catalog

COSMOS 2517 (GEO-IK 2)

NORAD 41579 · 2016-034A

PAYLOAD ACTIVE UNKNOWN

§ Identity

Operator
Country
CIS
Launch date
2016-06-04
Launch site
PLMSC
Launch vehicle
Mass (kg)
RCS (m²)
3.09

External: N2YO · Heavens-Above · Gunter

§ Orbital elements

Epoch: 2026-09-20T05:19:58.790208Z

Period
103.90 min
Inclination
99.1926°
Eccentricity
0.0001112
Mean motion
13.85910746 rev/d
Perigee alt
942.2 km
Apogee alt
943.8 km
Semi-major
7,321.1 km
B*
3.7153e-5
RAAN
270.2183°
Arg perigee
84.5596°
Mean anomaly
275.5687°
Rev number
52,079

§ Raw data

COSMOS 2517 (GEO-IK 2)1 41579U 16034A   26263.22220822 -.00000001  00000+0  37153-4 0  99932 41579  99.1926 270.2183 0001112  84.5596 275.5687 13.85910746520796

JSON: /api/v1/satellites/41579 · /tle

For live sub-satellite position, see the globe view (requires WebGL).

§ Visibility from observer

Set your observer location to see the next 7 days of passes ≥ 10°. The values pass through the URL so the page stays shareable.

No JS? Fill the form by hand. The geolocation button needs JavaScript.

§ Radio — SatNOGS DB

ModeDescriptionDownlinkUplink
BPSK S-band telemetry 2.232 GHz

1 transmitter · refreshed weekly from db.satnogs.org